TimeEST,TemperatureF,Dew PointF,Humidity,Sea Level PressureIn,VisibilityMPH,Wind Direction,Wind SpeedMPH,Gust SpeedMPH,PrecipitationIn,Events,Conditions,WindDirDegrees,DateUTC
12:15 AM,53.6,51.8,94,30.17,7.0,Calm,Calm,-,N/A,,Overcast,0,2012-11-28 05:15:00
12:55 AM,53.6,51.8,94,30.16,7.0,Calm,Calm,-,N/A,,Overcast,0,2012-11-28 05:55:00
1:15 AM,53.6,51.8,94,30.16,10.0,Calm,Calm,-,N/A,,Overcast,0,2012-11-28 06:15:00
1:35 AM,53.6,51.8,94,30.16,10.0,Calm,Calm,-,N/A,,Overcast,0,2012-11-28 06:35:00
2:15 AM,51.8,50.0,94,30.17,10.0,NW,4.6,-,N/A,,Overcast,320,2012-11-28 07:15:00
2:35 AM,51.8,50.0,94,30.17,10.0,NW,3.5,-,N/A,,Scattered Clouds,310,2012-11-28 07:35:00
2:55 AM,51.8,50.0,94,30.17,7.0,NW,4.6,-,N/A,,Clear,310,2012-11-28 07:55:00
3:15 AM,51.8,50.0,94,30.17,7.0,NW,5.8,-,N/A,,Scattered Clouds,310,2012-11-28 08:15:00
3:35 AM,51.8,50.0,94,30.18,7.0,NW,8.1,-,N/A,,Mostly Cloudy,320,2012-11-28 08:35:00
3:55 AM,51.8,50.0,94,30.19,5.0,NW,5.8,-,N/A,,Overcast,310,2012-11-28 08:55:00
4:15 AM,51.8,50.0,94,30.19,5.0,NW,8.1,-,N/A,,Overcast,320,2012-11-28 09:15:00
4:35 AM,51.8,50.0,94,30.19,5.0,NNW,6.9,-,N/A,,Overcast,330,2012-11-28 09:35:00
4:55 AM,50.0,50.0,100,30.19,5.0,North,4.6,-,N/A,,Overcast,360,2012-11-28 09:55:00
5:15 AM,50.0,50.0,100,30.20,5.0,North,6.9,-,N/A,,Overcast,360,2012-11-28 10:15:00
5:35 AM,50.0,48.2,94,30.21,7.0,North,9.2,-,N/A,,Overcast,360,2012-11-28 10:35:00
5:55 AM,50.0,48.2,94,30.22,7.0,North,6.9,-,N/A,,Overcast,360,2012-11-28 10:55:00
6:15 AM,50.0,48.2,94,30.22,7.0,North,5.8,-,N/A,,Overcast,360,2012-11-28 11:15:00
6:35 AM,50.0,48.2,94,30.23,7.0,North,4.6,-,N/A,,Overcast,350,2012-11-28 11:35:00
6:55 AM,50.0,48.2,94,30.24,7.0,North,5.8,-,N/A,,Overcast,360,2012-11-28 11:55:00
7:15 AM,51.8,50.0,94,30.25,7.0,North,8.1,-,N/A,,Overcast,360,2012-11-28 12:15:00
7:35 AM,51.8,50.0,94,30.26,7.0,North,9.2,-,N/A,,Overcast,10,2012-11-28 12:35:00
7:55 AM,51.8,50.0,94,30.28,5.0,North,6.9,-,N/A,,Overcast,10,2012-11-28 12:55:00
8:15 AM,51.8,50.0,94,30.28,3.0,North,3.5,-,N/A,,Overcast,360,2012-11-28 13:15:00
8:35 AM,51.8,50.0,94,30.29,2.5,Calm,Calm,-,N/A,,Overcast,0,2012-11-28 13:35:00
8:55 AM,51.8,50.0,94,30.30,3.0,NE,11.5,-,N/A,,Overcast,40,2012-11-28 13:55:00
9:15 AM,51.8,50.0,94,30.31,4.0,NE,9.2,-,N/A,,Overcast,40,2012-11-28 14:15:00
9:35 AM,50.0,50.0,100,30.31,3.0,NE,10.4,-,N/A,,Overcast,40,2012-11-28 14:35:00
9:55 AM,50.0,48.2,94,30.32,3.0,NNE,9.2,-,N/A,,Overcast,20,2012-11-28 14:55:00
10:15 AM,50.0,48.2,94,30.32,5.0,North,9.2,-,N/A,,Overcast,10,2012-11-28 15:15:00
10:55 AM,51.8,48.2,88,30.33,7.0,North,9.2,-,N/A,,Overcast,360,2012-11-28 15:55:00
11:15 AM,50.0,46.4,87,30.34,7.0,NNW,8.1,-,N/A,,Overcast,340,2012-11-28 16:15:00
11:35 AM,50.0,46.4,87,30.34,10.0,North,10.4,-,N/A,,Overcast,360,2012-11-28 16:35:00
11:55 AM,51.8,46.4,82,30.34,10.0,NNE,9.2,-,N/A,,Overcast,30,2012-11-28 16:55:00
12:15 PM,53.6,46.4,77,30.32,10.0,NE,8.1,-,N/A,,Mostly Cloudy,50,2012-11-28 17:15:00
12:35 PM,53.6,46.4,77,30.32,10.0,ENE,8.1,-,N/A,,Mostly Cloudy,60,2012-11-28 17:35:00
12:55 PM,55.4,44.6,67,30.31,10.0,NE,6.9,-,N/A,,Mostly Cloudy,40,2012-11-28 17:55:00
1:15 PM,53.6,44.6,72,30.31,10.0,North,6.9,-,N/A,,Overcast,10,2012-11-28 18:15:00
1:35 PM,55.4,44.6,67,30.30,10.0,North,4.6,-,N/A,,Overcast,360,2012-11-28 18:35:00
1:55 PM,55.4,44.6,67,30.29,10.0,North,4.6,-,N/A,,Mostly Cloudy,10,2012-11-28 18:55:00
2:15 PM,55.4,44.6,67,30.29,10.0,NNE,9.2,-,N/A,,Mostly Cloudy,20,2012-11-28 19:15:00
2:35 PM,59.0,44.6,59,30.28,10.0,NNE,4.6,-,N/A,,Scattered Clouds,30,2012-11-28 19:35:00
2:55 PM,59.0,42.8,55,30.27,10.0,NNE,8.1,-,N/A,,Scattered Clouds,30,2012-11-28 19:55:00
3:15 PM,59.0,42.8,55,30.27,10.0,NNE,6.9,-,N/A,,Scattered Clouds,20,2012-11-28 20:15:00
3:35 PM,59.0,42.8,55,30.27,10.0,North,5.8,-,N/A,,Scattered Clouds,360,2012-11-28 20:35:00
3:55 PM,59.0,42.8,55,30.28,10.0,North,4.6,-,N/A,,Scattered Clouds,350,2012-11-28 20:55:00
4:15 PM,57.2,42.8,59,30.29,10.0,North,5.8,-,N/A,,Scattered Clouds,360,2012-11-28 21:15:00
4:35 PM,55.4,42.8,63,30.30,10.0,North,5.8,-,N/A,,Clear,360,2012-11-28 21:35:00
4:55 PM,55.4,42.8,63,30.30,10.0,North,6.9,-,N/A,,Clear,10,2012-11-28 21:55:00
5:15 PM,53.6,42.8,67,30.31,10.0,North,6.9,-,N/A,,Clear,10,2012-11-28 22:15:00
5:35 PM,53.6,41.0,62,30.32,10.0,NNE,5.8,-,N/A,,Clear,20,2012-11-28 22:35:00
5:55 PM,50.0,42.8,76,30.32,10.0,Calm,Calm,-,N/A,,Clear,0,2012-11-28 22:55:00
6:15 PM,48.2,42.8,82,30.32,10.0,Calm,Calm,-,N/A,,Clear,0,2012-11-28 23:15:00
6:35 PM,46.4,44.6,93,30.33,10.0,Calm,Calm,-,N/A,,Clear,0,2012-11-28 23:35:00
6:55 PM,46.4,44.6,93,30.34,10.0,Calm,Calm,-,N/A,,Clear,0,2012-11-28 23:55:00
7:35 PM,46.4,44.6,93,30.35,7.0,Calm,Calm,-,N/A,,Clear,0,2012-11-29 00:35:00
7:55 PM,44.6,42.8,93,30.36,5.0,Calm,Calm,-,N/A,,Clear,0,2012-11-29 00:55:00
8:35 PM,44.6,42.8,93,30.37,4.0,Calm,Calm,-,N/A,,Clear,0,2012-11-29 01:35:00
8:55 PM,44.6,42.8,93,30.37,5.0,Calm,Calm,-,N/A,,Clear,0,2012-11-29 01:55:00
9:15 PM,44.6,42.8,93,30.37,4.0,Calm,Calm,-,N/A,,Clear,0,2012-11-29 02:15:00
9:35 PM,44.6,42.8,93,30.38,4.0,Calm,Calm,-,N/A,,Clear,0,2012-11-29 02:35:00
9:55 PM,44.6,42.8,93,30.39,1.8,Calm,Calm,-,N/A,,Mist,0,2012-11-29 02:55:00
10:15 PM,42.8,42.8,100,30.39,5.0,Calm,Calm,-,N/A,,Clear,0,2012-11-29 03:15:00
10:35 PM,42.8,42.8,100,30.39,5.0,Calm,Calm,-,N/A,,Clear,0,2012-11-29 03:35:00
10:55 PM,42.8,42.8,100,30.39,4.0,Calm,Calm,-,N/A,,Clear,0,2012-11-29 03:55:00
11:15 PM,42.8,42.8,100,30.39,7.0,NE,4.6,-,N/A,,Clear,40,2012-11-29 04:15:00
11:35 PM,44.6,42.8,93,30.39,10.0,NE,5.8,-,N/A,,Clear,50,2012-11-29 04:35:00
11:55 PM,44.6,41.0,87,30.39,10.0,NE,5.8,-,N/A,,Clear,40,2012-11-29 04:55:00